Weather History for KPRC - November, 2014

Change the Weather History Date:

Sunday, November 2, 2014

  Actual Average Record
Temperature  
Mean Temperature 45 °F 51 °F  
Max Temperature 55 °F 66 °F 80 °F (2009)
Min Temperature 35 °F 36 °F 21 °F (1989)
Degree Days  
Heating Degree Days 20    
Month to date heating degree days 29  
Since 1 July heating degree days 171  
Cooling Degree Days 0    
Month to date cooling degree days 0  
Year to date cooling degree days 1039  
Moisture  
Dew Point 31 °F    
Average Humidity 57    
Maximum Humidity 82    
Minimum Humidity 28    
Precipitation  
Precipitation 0.02 in 0.03 in 0.73 in (1959)
Month to date precipitation 0.02 0.06  
Year to date precipitation 10.22 12.15  
Sea Level Pressure  
Sea Level Pressure 29.87 in    
Wind  
Wind Speed 9 mph (SSW)    
Max Wind Speed 18 mph    
Max Gust Speed 26 mph    
Visibility 10 miles    
Events Rain    
T = Trace of Precipitation, MM = Missing Value Source: NWS Daily Summary

Daily Weather History Graph

Daily Weather History Graph

Search for Another Location

Airport or City:

Trip Planner

Search our weather history database for the weather conditions in past years. The results will help you decide how hot, cold, wet, or windy it might be!

Date:

Astronomy

Nov. 02, 2014 Rise Set
Actual Time 6:51 AM MST 5:34 PM MST
Civil Twilight 6:25 AM MST 6:00 PM MST
Nautical Twilight 5:55 AM MST 6:30 PM MST
Astronomical Twilight 5:25 AM MST 7:00 PM MST
Moon 2:58 PM MST (11/2) 2:10 AM MST (11/2)
Length of Visible Light 11h 35m
Length of Day
10h 43m
Waxing Gibbous, 79% of the Moon is Illuminated
Nov 2
Waxing Gibbous
Nov 6
Full
Nov 14
Last Quarter
Nov 22
New
Nov 29
First Quarter

Hourly Weather History & Observations

Time (MST) Temp. Windchill Dew Point Humidity Pressure Visibility Wind Dir Wind Speed Gust Speed Precip Events Conditions
12:53 AM 46.9 °F - 35.1 °F 63% 29.80 in 10.0 mi SW 12.7 mph - N/A   Clear
1:53 AM 48.9 °F - 36.0 °F 61% 29.79 in 10.0 mi SSW 11.5 mph - N/A   Clear
2:53 AM 48.0 °F - 37.0 °F 66% 29.79 in 10.0 mi SSW 9.2 mph - N/A   Partly Cloudy
3:53 AM 48.0 °F - 37.9 °F 68% 29.80 in 7.0 mi SW 10.4 mph - 0.00 in Rain Light Rain
4:53 AM 44.1 °F 39.5 °F 37.9 °F 79% 29.83 in 9.0 mi SSW 8.1 mph - 0.01 in Rain Light Rain
5:53 AM 43.0 °F 41.3 °F 37.9 °F 82% 29.84 in 10.0 mi South 3.5 mph - 0.00 in Rain Light Rain
6:53 AM 42.1 °F 40.2 °F 37.0 °F 82% 29.85 in 10.0 mi NNW 3.5 mph - 0.00 in   Mostly Cloudy
7:53 AM 43.0 °F - 36.0 °F 76% 29.87 in 10.0 mi Calm Calm - 0.00 in Rain Light Rain
8:53 AM 44.1 °F 40.8 °F 36.0 °F 73% 29.88 in 10.0 mi SSE 5.8 mph - 0.01 in   Overcast
9:53 AM 46.0 °F 41.0 °F 35.1 °F 66% 29.90 in 10.0 mi South 10.4 mph - N/A   Scattered Clouds
10:53 AM 51.1 °F - 30.9 °F 46% 29.88 in 10.0 mi SSW 11.5 mph - N/A   Partly Cloudy
11:53 AM 52.0 °F - 28.0 °F 40% 29.86 in 10.0 mi South 12.7 mph 18.4 mph N/A   Mostly Cloudy
12:53 PM 54.0 °F - 27.0 °F 35% 29.84 in 10.0 mi SSW 11.5 mph - N/A   Mostly Cloudy
1:53 PM 55.0 °F - 25.0 °F 31% 29.82 in 10.0 mi West 13.8 mph - N/A   Mostly Cloudy
2:53 PM 54.0 °F - 27.0 °F 35% 29.83 in 10.0 mi SSW 13.8 mph 18.4 mph N/A   Mostly Cloudy
3:53 PM 53.1 °F - 21.9 °F 30% 29.84 in 10.0 mi West 12.7 mph - N/A   Scattered Clouds
4:53 PM 51.1 °F - 25.0 °F 36% 29.86 in 10.0 mi SW 9.2 mph - N/A   Scattered Clouds
5:53 PM 46.9 °F - 26.1 °F 44% 29.90 in 10.0 mi West 6.9 mph - N/A   Partly Cloudy
6:53 PM 45.0 °F 40.1 °F 27.0 °F 49% 29.94 in 10.0 mi SW 9.2 mph - N/A   Clear
7:53 PM 43.0 °F 38.8 °F 27.0 °F 53% 29.95 in 10.0 mi SW 6.9 mph - N/A   Clear
8:53 PM 41.0 °F 36.4 °F 27.0 °F 57% 29.96 in 10.0 mi SSW 6.9 mph - N/A   Clear
9:53 PM 39.9 °F 35.1 °F 28.0 °F 63% 29.98 in 10.0 mi SSW 6.9 mph - N/A   Clear
10:53 PM 36.0 °F 30.3 °F 27.0 °F 70% 29.98 in 10.0 mi South 6.9 mph - N/A   Clear
11:53 PM 36.0 °F 31.1 °F 27.0 °F 70% 29.99 in 10.0 mi SSW 5.8 mph - N/A   Clear